Regional Weather Roundup
Issued by NWS

Home | Current Version | Previous Version | Text Only | Print | Product List | Glossary Off
Versions: 1 2 3 4 5 6 7 8 9 10 11 12 13 14 15 16 17 18 19 20 21 22 23 24 25 26 27 28 29 30 31 32 33 34 35 36 37 38 39 40 41 42 43 44 45 46 47 48 49 50

000
ASUS43 KLSX 200359
RWRMO

WEATHER SUMMARY FOR MISSOURI
NATIONAL WEATHER SERVICE SPRINGFIELD MO
1100 PM CDT SAT APR 19 2014

NOTE: "FAIR" INDICATES FEW OR NO CLOUDS BELOW 12,000 FEET WITH NO
       SIGNIFICANT WEATHER AND/OR OBSTRUCTIONS TO VISIBILITY.
       CURRENT SKY AND/OR WEATHER CONDITIONS ARE NOT AVAILABLE FOR
       CHILLICOTHE AND FARMINGTON.

MOZ001>031-035>038-043-044-053-054-200500-
...NORTHERN AND WESTERN MISSOURI...

CITY           SKY/WX    TMP DP  RH WIND       PRES   REMARKS
KANSAS CTY INT PTCLDY    60  44  55 SE8       30.09S
KANSAS C DTWN  PTCLDY    69  44  40 S8        30.08S
LEE`S SUMMIT   PTCLDY    64  44  48 S6        30.11R
ST JOSEPH      CLEAR     61  44  53 SE7       30.07F
CHILLICOTHE      N/A     59  44  57 CALM      30.12R
KIRKSVILLE     PTCLDY    56  42  59 SE9       30.14R

$$
MOZ066>068-077>081-088>096-101>105-200500-
...SOUTHWEST MISSOURI...

CITY           SKY/WX    TMP DP  RH WIND       PRES   REMARKS
SPRINGFIELD    PTCLDY    60  45  57 SE9       30.13S
JOPLIN         MOCLDY    63  45  51 S5        30.12R

$$
MOZ032>034-039>042-045>050-055>058-069>072-200500-
...CENTRAL MISSOURI...

CITY           SKY/WX    TMP DP  RH WIND       PRES   REMARKS
COLUMBIA       PTCLDY    62  41  46 SE8       30.14S
JEFFERSON CITY PTCLDY    60  42  51 SE6       30.13S
ROLLA          PTCLDY    60  39  45 SE9       30.15R
SEDALIA        PTCLDY    66  41  40 S3        30.13S
OSAGE BEACH    MOCLDY    64  37  36 S6        30.15S

$$
MOZ051-052-059>065-200500-
...EAST CENTRAL MISSOURI...

CITY           SKY/WX    TMP DP  RH WIND       PRES   REMARKS
ST LOUIS INTL  PTCLDY    61  42  49 SE8       30.19R
SPIRIT OF STL  CLEAR     62  41  46 E5        30.17R
ST CHARLES     CLEAR     57  44  62 E8        30.17R

$$
MOZ072>076-082>087-097>100-106>115-200500-
...SOUTH CENTRAL AND SOUTHEAST MISSOURI...

CITY           SKY/WX    TMP DP  RH WIND       PRES   REMARKS
CAPE GIRARDEAU CLEAR     59  45  59 CALM      30.17F
FARMINGTON     CLEAR     57  41  54 CALM      30.22R
POPLAR BLUFF   CLEAR     57  49  74 CALM      30.17R
WEST PLAINS    CLEAR     61  39  44 SE6       30.18S

$$



USA.gov is the U.S. government's official web portal to all federal, state and local government web resources and services.